Notices

What's New in latest Release from April 7th, 2021:

- Updated Glossary, including Speed of Maximum Gust, and Total Hourly Precipitation

- Updated national and regional climate services offices contacts and prices information

- Addition of station inventory lists for 1981-2010, 1971-2000, and 1961-1990 Normals.

If you haven't already, please take our survey and provide feedback about our website: https://eccc.sondage-survey.ca/f/LanguageSelection.aspx?s=442ca660-fcf1-47c0-95a9-59707d6fd709

Hourly Data Report for April 02, 2018

MIRAMICHI RCS
NEW BRUNSWICK
Current Station Operator: ECCC - MSC

47°00'34.000" N
65°27'54.000" W
33.00 m
8100989
71744
ACQ

Download Data

Hourly Data (April 2018)
Hourly Data Report for April 2, 2018
TIME
LST
Temp Definition
°C
Dew Point Definition
°C
Rel Hum Definition
%
Precip. Amount Definition
mm

Wind Dir Definition
10's deg

Wind Spd Definition
km/h
Visibility Definition
km
Stn Press Definition
kPa
Hmdx Definition


Wind Chill Definition


Weather Definition


00:00 -0.9 -11.5 44 0.0 29 19   100.69   -6 LegendNANA
01:00 -1.7 -13.3 41 0.0 29 22   100.78   -8 LegendNANA
02:00 -2.2 -14.0 40 0.0 29 23   100.84   -8 LegendNANA
03:00 -2.9 -13.7 43 0.0 29 18   100.93   -9 LegendNANA
04:00 -3.9 -13.5 47 0.0 28 13   101.00   -9 LegendNANA
05:00 -4.2 -14.4 45 0.0 27 13   101.07   -9 LegendNANA
06:00 -4.7 -14.1 48 0.0 27 9   101.13   -9 LegendNANA
07:00 -4.9 -14.1 48 0.0 27 11   101.20   -9 LegendNANA
08:00 -3.9 -13.5 47 0.0 27 16   101.27   -9 LegendNANA
09:00 -3.3 -13.6 45 0.0 29 17   101.33   -9 LegendNANA
10:00 -2.1 -13.5 41 0.0 29 18   101.31   -8 LegendNANA
11:00 -1.1 -14.8 35 0.0 28 16   101.32   -6 LegendNANA
12:00 -0.2 -16.3 29 0.0 29 12   101.27   -4 LegendNANA
13:00 0.8 -15.7 28 0.0 29 13   101.22     LegendNANA
14:00 1.5 -15.7 27 0.0 28 17   101.19     LegendNANA
15:00 2.4 -13.1 31 0.0 25 11   101.17     LegendNANA
16:00 2.4 -12.5 32 0.0 25 17   101.17     LegendNANA
17:00 2.3 -14.3 28 0.0 27 13   101.20     LegendNANA
18:00 1.7 -13.5 31 0.0 29 12   101.27     LegendNANA
19:00 0.4 -13.8 34 0.0 27 11   101.34     LegendNANA
20:00 -2.2 -11.1 50 0.0 6 10   101.43   -6 LegendNANA
21:00 -4.0 -10.1 63 0.0 6 6   101.48   -7 LegendNANA
22:00 -5.0 -10.2 67 0.0 8 3   101.52   -6 LegendNANA
23:00 -6.3 -9.6 78 0.0 8 2   101.58   -7 LegendNANA

Notes on Data Quality.

Legend

  • E = Estimated
  • M = Missing
  • NA = Not Available*
  • [empty] = Indicates an unobserved value
Date modified: